AB9HP Weather Reports


Display with metric or nautical units.
time (UTC)temp
F
wind
direction
speed
MPH
gust
MPH
rain 1hr
in
rain 24hr
in
rain mn
in
humidity
%
barometer
mb
20260901103025 75 202 0.0 4.0 0.00 0.13 0.00 87 1015.6
20260901101523 75 190 1.0 4.0 0.00 0.13 0.00 86 1015.6
20260901100124 76 223 1.0 6.0 0.00 0.13 0.00 86 1015.4
20260901094516 76 223 1.0 4.0 0.00 0.13 0.00 85 1015.5
20260901093012 76 226 1.0 6.0 0.00 0.13 0.00 85 1015.3
20260901091510 77 269 0.0 4.0 0.00 0.13 0.00 84 1015.2
20260901090008 77 227 2.0 8.0 0.00 0.13 0.00 84 1015.1
20260901084505 77 217 0.0 5.0 0.00 0.13 0.00 84 1015.0
20260901083002 77 239 2.0 8.0 0.00 0.13 0.00 84 1015.0
20260901081600 77 196 1.0 6.0 0.00 0.13 0.00 84 1014.9
20260901074610 78 211 2.0 8.0 0.00 0.13 0.00 84 1015.0
20260901073051 78 238 3.0 7.0 0.00 0.13 0.00 83 1014.8
20260901071549 78 224 2.0 8.0 0.00 0.13 0.00 83 1014.8
20260901070047 79 208 4.0 11.0 0.00 0.13 0.00 82 1014.9
20260901064545 79 206 4.0 10.0 0.00 0.13 0.00 82 1014.9
20260901063046 79 247 4.0 12.0 0.00 0.13 0.00 82 1015.0
20260901061541 80 219 3.0 10.0 0.00 0.13 0.00 82 1014.9
20260901060038 79 229 3.0 9.0 0.00 0.13 0.00 82 1015.0
20260901054537 79 222 1.0 5.0 0.00 0.13 0.00 83 1015.1
20260901053045 79 216 3.0 7.0 0.00 0.13 0.00 83 1015.2
20260901051549 79 231 3.0 9.0 0.00 0.13 0.00 83 1015.2
20260901050030 79 217 3.0 8.0 0.00 0.13 0.00 84 1015.0
20260901044534 79 237 3.0 6.0 0.00 0.13 0.00 85 1015.1
20260901043034 78 207 3.0 7.0 0.00 0.13 0.00 85 1014.9
20260901041545 79 199 3.0 9.0 0.00 0.13 0.00 85 1014.9
20260901040020 78 155 5.0 11.0 0.00 0.13 0.00 85 1014.8
20260901034517 78 200 8.0 14.0 0.00 0.13 0.13 86 1013.8
20260901033012 78 123 3.0 8.0 0.06 0.13 0.13 86 1014.6
20260901031510 78 145 3.0 6.0 0.13 0.13 0.13 87 1015.2
20260901030008 78 169 3.0 8.0 0.13 0.13 0.13 86 1015.5
20260901024507 78 193 2.0 5.0 0.13 0.13 0.13 85 1015.3
20260901023005 80 136 3.0 6.0 0.06 0.06 0.06 82 1015.9
20260901021502 80 227 1.0 5.0 0.00 0.00 0.00 80 1015.8
20260901020003 80 164 2.0 6.0 0.00 0.00 0.00 80 1015.3
20260901014602 80 118 2.0 5.0 0.00 0.00 0.00 80 1015.5
20260901013058 81 155 1.0 4.0 0.00 0.00 0.00 79 1015.5
20260901011557 81 123 2.0 5.0 0.00 0.00 0.00 78 1015.5
20260901010054 82 137 0.0 2.0 0.00 0.00 0.00 76 1015.5
20260901004551 82 150 2.0 5.0 0.00 0.00 0.00 75 1015.1
20260901003049 83 148 0.0 1.0 0.00 0.00 0.00 74 1015.5
20260901001555 84 152 0.0 2.0 0.00 0.00 0.00 74 1015.5
20260901000050 85 151 0.0 1.0 0.00 0.00 0.00 72 1015.4
20260831234557 86 169 0.0 1.0 0.00 0.00 0.00 71 1015.3
20260831233044 86 224 1.0 2.0 0.00 0.00 0.00 69 1015.4
20260831231539 87 235 0.0 3.0 0.00 0.00 0.00 69 1015.5
20260831230036 87 226 1.0 6.0 0.00 0.00 0.00 67 1015.3
20260831224536 89 244 0.0 6.0 0.00 0.00 0.00 66 1015.2
20260831223033 89 257 3.0 9.0 0.00 0.00 0.00 65 1015.1
20260831221533 89 193 1.0 10.0 0.00 0.00 0.00 64 1014.9
20260831220029 89 219 2.0 10.0 0.00 0.00 0.00 64 1015.1
20260831214525 90 217 6.0 11.0 0.00 0.00 0.00 63 1015.0
20260831213022 90 248 2.0 13.0 0.00 0.00 0.00 63 1015.1
20260831211521 90 231 2.0 12.0 0.00 0.00 0.00 64 1015.1
20260831210015 89 231 8.0 17.0 0.00 0.00 0.00 65 1015.1
20260831204517 88 226 5.0 16.0 0.00 0.00 0.00 68 1015.0
20260831203007 87 226 2.0 9.0 0.00 0.00 0.00 75 1015.0
20260831201600 84 220 5.0 9.0 0.00 0.00 0.00 78 1015.3
20260831200054 81 200 3.0 8.0 0.00 0.00 0.00 80 1015.7
20260831194555 80 214 3.0 6.0 0.00 0.00 0.00 82 1015.7
20260831193047 80 222 3.0 8.0 0.00 0.00 0.00 79 1015.8
20260831191545 80 221 1.0 6.0 0.00 0.00 0.00 79 1016.5
20260831190042 80 205 4.0 7.0 0.00 0.00 0.00 79 1016.4
20260831184540 81 197 3.0 6.0 0.00 0.00 0.00 79 1016.7
20260831183037 81 233 5.0 12.0 0.00 0.00 0.00 79 1016.8
20260831181537 81 231 2.0 9.0 0.00 0.00 0.00 79 1017.4
20260831180033 81 156 4.0 13.0 0.00 0.00 0.00 79 1017.1
20260831174530 80 208 5.0 10.0 0.00 0.00 0.00 81 1017.2
20260831173025 80 158 3.0 6.0 0.00 0.00 0.00 80 1017.4
20260831171526 80 202 0.0 5.0 0.00 0.00 0.00 81 1017.9
20260831170026 80 242 1.0 6.0 0.00 0.00 0.00 81 1018.1
20260831164522 80 243 3.0 7.0 0.00 0.00 0.00 79 1018.2
20260831163016 81 176 3.0 9.0 0.00 0.00 0.00 77 1017.9
20260831161518 81 233 5.0 12.0 0.00 0.00 0.00 77 1018.0
20260831160016 81 245 4.0 10.0 0.00 0.00 0.00 77 1017.9
20260831154510 81 234 3.0 9.0 0.00 0.00 0.00 78 1017.9
20260831153105 80 214 2.0 10.0 0.00 0.00 0.00 79 1017.8
20260831151607 79 181 4.0 10.0 0.00 0.00 0.00 80 1017.9
20260831150100 78 176 2.0 8.0 0.00 0.00 0.00 80 1017.8
20260831144557 78 173 0.0 11.0 0.00 0.00 0.00 80 1017.8
20260831143111 79 189 4.0 10.0 0.00 0.00 0.00 79 1017.9
20260831141554 78 195 3.0 11.0 0.00 0.00 0.00 79 1017.7
20260831140050 78 229 5.0 10.0 0.00 0.00 0.00 78 1017.7
20260831134543 78 167 2.0 8.0 0.00 0.00 0.00 78 1017.7
20260831133036 77 163 1.0 6.0 0.00 0.00 0.00 81 1017.6
20260831131533 76 187 2.0 5.0 0.00 0.00 0.00 81 1017.7
20260831130028 76 193 1.0 7.0 0.00 0.00 0.00 82 1017.6
20260831124523 75 191 2.0 9.0 0.00 0.00 0.00 82 1017.4
20260831123023 74 207 3.0 9.0 0.00 0.00 0.00 83 1017.3
20260831121516 73 182 2.0 7.0 0.00 0.00 0.00 85 1017.2
20260831120016 72 210 1.0 6.0 0.00 0.00 0.00 86 1017.1
20260831114512 72 195 0.0 5.0 0.00 0.00 0.00 86 1017.2
20260831113013 72 198 1.0 4.0 0.00 0.00 0.00 87 1017.1
20260831111608 72 203 1.0 4.0 0.00 0.00 0.00 87 1017.3
20260831110005 72 227 2.0 5.0 0.00 0.00 0.00 87 1016.9